Location: Castillon
(43.0896°N, 0.2156°E)
Time: 11:02:28
(UTC+00:00)

Cosmos 1544 Rocket - Pass Details

Date: 21 October 2021
Orbit: 603 x 631 km, 82.5° (Epoch: 08 December)

Event Time Altitude Azimuth Distance (km) Brightness Sun altitude
Rises 19:44:56 0° 232° (SW) 2,913 7.5 -29.5°
Reaches altitude 10° 19:48:01 10° 255° (WSW) 2,013 6.9 -30.0°
Maximum altitude 19:50:39 15° 291° (WNW) 1,691 6.6 -30.5°
Drops below altitude 10° 19:53:18 10° 328° (NNW) 2,021 6.7 -31.0°
Sets 19:56:26 0° 351° (N) 2,932 7.3 -31.5°
